Weather History for Glasgow, MT

Change the Weather History Date:

Saturday, August 30, 2014

  Actual Average Record
Temperature  
Mean Temperature 62 °F 66 °F  
Max Temperature 68 °F 80 °F 104 °F (1921)
Min Temperature 55 °F 52 °F 37 °F (1912)
Degree Days  
Heating Degree Days 3 3  
Month to date heating degree days 47 31  
Since 1 June heating degree days 159 154  
Since 1 July heating degree days 51 49  
Cooling Degree Days 0 4  
Month to date cooling degree days 201 193  
Year to date cooling degree days 472 492  
Since 1 June cooling degree days 438 475  
Growing Degree Days 12 (Base 50)    
Moisture  
Dew Point 56 °F    
Average Humidity 81    
Maximum Humidity 93    
Minimum Humidity 68    
Precipitation  
Precipitation 0.14 in 0.04 in 1.22 in (1957)
Month to date precipitation 6.71 1.21  
Year to date precipitation 12.94 9.14  
Snow  
Snow 0.00 in 0.00 in 0.00 in (2002)
Month to date snowfall 0.0 0.0  
Since 1 June snowfall 0.0 0.0  
Since 1 July snowfall 0.0 0.0  
Snow Depth 0.00 in    
Sea Level Pressure  
Sea Level Pressure 29.73 in    
Wind  
Wind Speed 9 mph (SE)    
Max Wind Speed 25 mph    
Max Gust Speed 31 mph    
Visibility 10 miles    
Events Rain , Thunderstorm    
T = Trace of Precipitation, MM = Missing Value Source: NWS Daily Summary

Daily Weather History Graph

Daily Weather History Graph

Search for Another Location

Airport:

Trip Planner

Search our weather history database for the weather conditions in past years. The results will help you decide how hot, cold, wet, or windy it might be!

Date:

Astronomy

Aug. 30, 2014 Rise Set
Actual Time 6:21 AM MDT 7:51 PM MDT
Civil Twilight 5:48 AM MDT 8:24 PM MDT
Nautical Twilight 5:09 AM MDT 9:03 PM MDT
Astronomical Twilight 4:26 AM MDT 9:46 PM MDT
Moon 11:37 AM MDT (8/30) 10:01 PM MDT (8/30)
Length of Visible Light 14h 35m
Length of Day
13h 30m
Waxing Crescent, 23% of the Moon is Illuminated
Aug 30
Waxing Crescent
Sep 2
First Quarter
Sep 8
Full
Sep 15
Last Quarter
Sep 24
New

Hourly Weather History & Observations

Time (MDT) Temp. Dew Point Humidity Pressure Visibility Wind Dir Wind Speed Gust Speed Precip Events Conditions
12:53 AM 57.0 °F 52.0 °F 83% 29.85 in 10.0 mi East 12.7 mph - N/A   Clear
1:53 AM 55.4 °F 51.8 °F 88% 29.84 in 10.0 mi ESE 12.7 mph - N/A   Clear
2:53 AM 55.9 °F 52.0 °F 87% 29.80 in 10.0 mi East 13.8 mph - N/A   Clear
3:53 AM 55.0 °F 52.0 °F 89% 29.78 in 10.0 mi ESE 13.8 mph - N/A   Clear
4:53 AM 55.0 °F 52.0 °F 89% 29.76 in 10.0 mi East 15.0 mph - N/A   Clear
5:53 AM 55.0 °F 53.1 °F 93% 29.76 in 10.0 mi East 12.7 mph - N/A   Partly Cloudy
6:53 AM 57.0 °F 54.0 °F 89% 29.73 in 10.0 mi East 17.3 mph - 0.07 in Rain Light Rain
7:21 AM 57.0 °F 55.0 °F 93% 29.77 in 10.0 mi SE 15.0 mph - 0.00 in Rain , Thunderstorm Light Rain
7:28 AM 57.0 °F 55.0 °F 93% 29.76 in 6.0 mi SE 17.3 mph - 0.00 in Rain , Thunderstorm Light Thunderstorms and Rain
7:43 AM 57.0 °F 55.0 °F 93% 29.70 in 10.0 mi ESE 24.2 mph - 0.01 in Rain , Thunderstorm Light Rain
7:53 AM 57.0 °F 55.0 °F 93% 29.70 in 10.0 mi ESE 20.7 mph 31.1 mph 0.01 in Rain , Thunderstorm Light Rain
8:03 AM 57.9 °F 55.0 °F 90% 29.70 in 10.0 mi East 16.1 mph 28.8 mph 0.00 in   Mostly Cloudy
8:53 AM 59.0 °F 55.9 °F 90% 29.72 in 10.0 mi ESE 5.8 mph - 0.00 in   Mostly Cloudy
9:53 AM 59.0 °F 55.4 °F 88% 29.77 in 10.0 mi SE 6.9 mph - N/A Rain Light Rain
10:53 AM 59.0 °F 57.9 °F 96% 29.76 in 10.0 mi East 5.8 mph - 0.00 in Rain Light Rain
11:53 AM 62.1 °F 59.0 °F 90% 29.73 in 10.0 mi Calm Calm - 0.02 in Rain Light Rain
12:53 PM 63.0 °F 60.1 °F 90% 29.72 in 10.0 mi Calm Calm - 0.05 in Rain Light Rain
1:53 PM 62.1 °F 60.1 °F 93% 29.73 in 10.0 mi South 5.8 mph - 0.01 in Rain Light Rain
2:53 PM 66.0 °F 57.9 °F 75% 29.72 in 10.0 mi South 5.8 mph - 0.00 in   Partly Cloudy
3:53 PM 68.0 °F 57.0 °F 68% 29.70 in 10.0 mi South 6.9 mph - N/A   Clear
4:53 PM 66.9 °F 55.9 °F 68% 29.71 in 10.0 mi South 8.1 mph - N/A   Clear
5:53 PM 66.9 °F 55.0 °F 66% 29.69 in 10.0 mi SSE 9.2 mph - N/A   Clear
6:53 PM 66.0 °F 57.0 °F 73% 29.70 in 10.0 mi SSE 8.1 mph - N/A   Clear
7:53 PM 63.0 °F 57.0 °F 81% 29.70 in 10.0 mi SE 9.2 mph - N/A   Clear
8:53 PM 60.8 °F 57.2 °F 88% 29.69 in 10.0 mi SE 9.2 mph - N/A   Clear
9:53 PM 59.0 °F 55.0 °F 87% 29.68 in 10.0 mi SSE 5.8 mph - N/A   Clear
10:53 PM 60.1 °F 57.0 °F 90% 29.70 in 10.0 mi East 5.8 mph - N/A   Mostly Cloudy
11:53 PM 57.0 °F 55.0 °F 93% 29.70 in 10.0 mi East 10.4 mph - N/A   Clear